Tracking 22779 objects as of 12-Apr-2021
HD Live streaming from Space Station
objects crossing your sky now

STARLINK-1192

Track STARLINK-1192 now!
10-day predictions
STARLINK-1192 is classified as:


NORAD ID: 45180
Int'l Code: 2020-012C
Perigee: 553.6 km
Apogee: 555.1 km
Inclination: 53.1 °
Period: 95.6 minutes
Semi major axis: 6925 km
RCS: Unknown
Launch date: February 17, 2020
Source: United States (US)
Launch site: AIR FORCE EASTERN TEST RANGE (AFETR)
aabbcc
Your satellite tracking list
Your tracking list is empty




NASA's NSSDC Master Catalog

Two Line Element Set (TLE):
1 45180U 20012C   21101.91384539 -.00001177  00000-0 -60146-4 0  9999
2 45180  53.0569 174.7003 0001055 140.1467 219.9599 15.06391485 63975
Source of the keplerian elements: AFSPC